Location:  
MeteoStar


Sort by weather type Sort by elevation Sort by visibility Sort from west to east north Sort from north to south Alphabetically Sort from strongest wind speed Sort from lowest to highest pressure Sort from highest to lowest dew point temperature Sort coolest temperatures to warmest Sort warm temperatures to coolest
 Metric

Current Observations for United Kingdom sorted from warmest to coolest

Saint Catherines Point06:00ZNot Avail.62 57201016.7W 10 6252
Crosby06:00ZClear61 56301013.5W 9 6126
Isle Of Portland06:00ZNot Avail.60 56201017.2W 13 60173
Mumbles06:00ZNot Avail.60 56201016.5W 9 60114
Milford Haven06:00ZNot Avail.60 56201015.5W 10 60144
Pembrey Sands06:00ZNot Avail.60 56111015.7WSW 13 609
Valley06:00ZCloudy59 53251013.5SW 12 593
Hawarden06:00ZNot Avail.59 54251014SSW 7 5932
Walney Island06:00ZClear59 56251012.5WSW 10 5949
Blackpool Airport06:00ZNot Avail.59 5616W 13 5932
Lydd Airport 06:20ZMostly Cloudy59 59161017.1W 4 599
Southend-On-Sea 06:20ZClear59 54161016.1WSW 6 5949
London City Airport06:20ZMostly Cloudy59 55251016.1WSW 8 Gusting to 18 5916
Jersey Airport06:00ZPartly Cloudy59 57251018.2WNW 5 59275
Alderney / Channel Island06:20ZClear59 57121018.1W 4 59232
Liverpool Airport 06:20ZPartly Cloudy59 55251013.1WSW 4 5985
Cardiff-Wales Airport06:20ZCloudy59 55251016.1WSW 9 59219
Culdrose06:00ZCloudy59 57121017.4WSW 6 59255
Chivenor06:00ZRain/Drizzle59 5671016.7SSW 7 5926
Camborne06:00ZCloudy58 57111017.4WSW 6 58285
Rhyl06:00ZNot Avail.58 53301013.7SW 5 58252
Leeming06:00ZShowers in Vicinity58 5561012.5S 4 58131
Isle Of Man / Ronaldsway Airport06:00ZCloudy58 54151012.4WSW 9 5855
Scilly; Saint MaryS06:00ZNot Avail.58 55191017.7W 7 58101
Plymouth06:00ZNot Avail.58 5871017.5SW 4 58164
Thorney Island06:00ZNot Avail.57 56181016.9NW 3 5713
Shoeburyness06:00ZNot Avail.57 55201016.4W 6 576
Trawscoed06:00ZNot Avail.57 54201015.2S 4 57206
Keswick06:00ZNot Avail.57 55201012.0ENE 1 57265
Saint Bees Head06:00ZNot Avail.57 54251012.2W 11 57406
Middle Wallop06:00ZCloudy57 55151016.9W 3 57298
Cranfield06:20ZClear57 5741015.1SW 6 57364
Tiree06:00ZNot Avail.57 5551008.0SSW 15 Gusting to 26 5739
Dundee / Riverside06:20ZClear57 552.751009.1NW 4 5713
Glasgow Airport06:20ZMostly Cloudy57 55301010.1WSW 4 5726
Tees-Side06:20ZShowers nearby57 5461012.1SSW 10 57121
Newcastle 06:20ZNot Avail.57 54151011.1N 2 57265
Biggin Hill 06:20ZClear57 55251017.0SW 6 57600
Guernsey Airport06:00ZPartly Cloudy57 56251018.5W 3 57334
Boscombe Down06:00ZCloudy57 55201016.7W 5 57406
Birmingham / Airport06:20ZNot Avail.57 54251015.1SW 7 57324
Langdon Bay06:00ZNot Avail.56 55201016.7WNW 9 56383
Gravesend-Broadness06:00ZNot Avail.56 54201016.0SSW 3 569
Kenley06:00ZNot Avail.56 55201016.7SW 4 56557
Larkhill06:00ZCloudy56 54121016.7WSW 4 56433
Shobdon06:00ZNot Avail.56 53121015.5SW 4 56324
Aberdaron06:00ZNot Avail.56 55251014.9WSW 17 56311
Capel Curig06:00ZNot Avail.56 5371014SW 13 56708
Loftus Samos06:00ZNot Avail.56 54191011.7SW 9 56190
Warcop Range06:00ZRain/Drizzle56 5471011.9SSE 3 56744
Shap06:00ZNot Avail.56 53301012.2WSW 5 56816
Dundrennan06:00ZClear56 55161011.2WSW 10 56374
Prestwick Rnas06:00ZNot Avail.56 53201010.7SSE 6 5685
Sule Skerry06:00ZNot Avail.56 N/A31008NW 3 52
Linton-On-Ouse06:00ZCloudy56 5291012.7SSW 8 5652
Odiham06:00ZCloudy56 55131016.5SW 7 56403
Brize Norton06:00ZMist56 5561016.2W 3 56288
Fairford Royal Air Force Base05:58ZCloudy56 54121016.0WSW 5 56285
Manston06:00ZNot Avail.56 54141016.7WSW 8 56180
Leuchars06:00ZNot Avail.56 54201009.7W 7 5639
West Freugh06:00ZClear56 54251011.5S 3 5636
Shawbury06:00ZClear56 51201014.2SW 11 56249
London / Heathrow Airport06:00ZNot Avail.56 55161016.5SSW 4 5678
Shoreham Airport06:00ZNot Avail.56 55251016.9WSW 4 566
Yeovilton06:00ZNot Avail.56 54251016.9SW 5 5675
Lyneham06:00ZNot Avail.56 5571016.5SW 4 56475
Castlederg06:00ZNot Avail.55 53201010.2SSW 8 55167
Cardinham06:00ZNot Avail.55 5571017.2S 4 55656
Pershore06:00ZNot Avail.55 55121016.0S 3 55104
Aultbea06:00ZClear55 53301008.4S 6 5536
South Uist Range06:00ZNot Avail.55 55131006.7S 9 5532
Lerwick06:00ZRain55 5431009.0E 13 55269
Northolt06:00ZMostly Cloudy55 54131016.5SW 2 55124
Mildenhall Royal Air Force Base05:58ZClear55 55141015.2SW 6 5532
Lakenheath Royal Air Force Base05:58ZClear55 5581015.2SW 7 5532
Aberporth06:00ZShowers55 5381015.4SW 11 55436
Benson06:00ZShowers nearby55 5471016.2S 6 55206
Exeter Airport06:20ZClear55 5241017.1N 1 5598
Norwich Weather Centre06:20ZNot Avail.55 54251015.1WSW 7 5545
Cambridge06:20ZClear55 54251015.1SSW 5 5549
Machrihanish06:00ZNot Avail.55 52201010.4ESE 6 5542
Stornoway06:00ZNot Avail.55 54151007.5S 10 5529
Benbecula06:20ZMostly Cloudy55 54301007.1SE 6 5519
Prestwick Airport06:20ZPartly Cloudy55 52301011.1N 3 5565
Edinburgh Airport06:20ZClear55 54301010.1WSW 5 55134
Sumburgh Cape 06:20ZRain55 5451008.1E 15 5516
Kirkwall Airport06:00ZNot Avail.55 55201007.9W 4 5568
East Midlands06:20ZNot Avail.55 5261015.1SW 8 55308
Leeds And Bradford06:20ZClear55 52251013.1WSW 10 55682
London / Gatwick Airport06:20ZPatchy Fog55 55251016.1SW 3 55203
Southampton / Weather Centre06:20ZClear55 54121017.1N 2 5529
Bristol / Lulsgate 06:20ZClear55 55251016.1SW 5 55620
Manchester Airport06:20ZClear55 52251014.1S 4 55226
Belfast / Harbour06:20ZClear55 54251011.1SSW 9 5516
Herstmonceux06:00ZNot Avail.54 5391017.0CALM54170
Liscombe06:00ZNot Avail.54 540.871016.9SSW 5 531141
High Wicombe Hqstc06:00ZNot Avail.54 54121016.4W 3 54669
Little Rissington06:00ZNot Avail.54 N/A41015.7SW 9 705
Church Lawford06:00ZNot Avail.54 53101015.2SW 3 54351
Sennybridge06:00ZNot Avail.54 54121015.9WSW 9 511007
Weybourne06:00ZNot Avail.54 53301014.5SSW 10 5168
Bingley06:00ZNot Avail.54 51131013.0SSW 8 52859
Spadeadam06:00ZClear54 5451011.4WSW 7 52935
Strathallan06:00ZNot Avail.54 53251010.2W 5 53114
Holbeach06:00ZNot Avail.54 52131014.7SW 9 519
Cranwell06:00ZPartly Cloudy54 51151014.4SW 7 52219
Waddington06:00ZPartly Cloudy54 52201014.2SW 8 52223
Stansted Airport06:20ZPartly Cloudy54 5441016.1SW 5 53347
Scatsa / Shetland Island06:20ZLight Drizzle54 542.751009.1ENE 17 4972
Wick06:00ZNot Avail.54 53301008.2WSW 6 52127
Humberside06:20ZNot Avail.54 52161014.1SSW 6 52101
Farnborough06:00ZNot Avail.54 54131016.7WSW 2 54213
Bournemouth Airport06:00ZNot Avail.54 53121017WNW 3 5436
Luton Airport 06:20ZMist54 541.751016.1S 4 53524
Belfast / Aldergrove Airport06:00ZNot Avail.54 52251011.2S 7 52265
Glenanne06:00ZNot Avail.53 52191011.2SSW 8 50528
Ballypatrick Forest06:00ZNot Avail.53 50251010.7SW 11 49511
Portglenone06:00ZNot Avail.53 52131010.7SSE 4 52209
Dunkeswell Aerodrome06:00ZNot Avail.53 53131017.4WSW 4 52826
Bedford06:00ZClear53 530.371015.7WSW 6 51278
Lake Vyrnwy06:00ZNot Avail.53 51251014.2WSW 8 501181
Donna Nook06:00ZNot Avail.53 52151013.5SSW 9 5026
Bridlington Mrsc06:00ZNot Avail.53 51191012.5W 2 5349
Redesdale06:00ZNot Avail.53 53191011.5NW 1 53692
Drumalbin06:00ZNot Avail.53 52301011SSW 9 50803
Baltasound06:00ZLight Rain53 5271010.5E 14 4949
Wainfleet06:00ZNot Avail.53 52111014.2SW 9 509
Wattisham06:00ZMostly Cloudy53 51121015.7WSW 7 51285
Nottingham Weather Centre06:00ZNot Avail.52 51101014.5SW 6 50383
Fylingdales06:00ZNot Avail.52 5219SSW 6 50859
Inverbervie06:00ZNot Avail.52 50251009.2NW 6 50439
Tulloch Bridge06:00ZNot Avail.52 51251010.5S 3 52777
Marham06:00ZClear52 5191015.2SSW 5 5175
Wittering06:00ZNot Avail.52 51141014.7SSW 6 50275
Coningsby Royal Air Force Base06:00ZMostly Cloudy52 51121014.2SSW 7 5022
Boulmer06:00ZNot Avail.52 52201010.7SSW 4 5175
Kinloss06:00ZNot Avail.52 48301008.7WSW 3 5222
Inverness / Dalcross06:20ZClear52 50301009.1WSW 4 5129
Aberdeen / Dyce06:00ZNot Avail.52 51301008.9ENE 2 52213
Lough Fea06:00ZNot Avail.51 51111011.0S 6 49738
Eskdalemuir06:00ZFog51 5131011.9N 3 51793
Charterhall06:00ZNot Avail.51 51251010.5SSW 2 51367
Lossiemouth06:00ZPartly Cloudy51 48251008.7ESE 4 5042
Glen Ogle06:00ZNot Avail.50 4925SW 2 501850
Loch Glascanoch06:00ZNot Avail.49 49301009.5E 3 49869
Great Dun Fell06:00ZNot Avail.48 487WSW 13 432778
Aboyne06:00ZNot Avail.48 48251009.5NW 4 47459
Aviemore06:00ZNot Avail.48 48121009.9NE 1 48721
Cairnwell06:00ZNot Avail.47 4212W 21 Gusting to 25 393061
Tain Range06:00ZFog47 47171008.7SW 2 4713
Altnaharra06:00ZClear46 460.251009NNW 1 46265
Cairngorm06:00ZNot Avail.43 4012WSW 22 Gusting to 32 344084

Atlantic
Tropical Watch